Location: *
(44.2500°N, 10.4333°E)
Time: 10:08:43
(UTC+00:00)

Daily predictions for brighter satellites

Satellite Brightness Start Highest point End
(mag) Time Altitude Azimuth Time Altitude Azimuth Time Altitude Azimuth
SPOT 1/Viking Rocket 3.7 19:32:59 10° SSE 19:38:03 62° ENE 19:43:09 10° N
Cosmos 1656 3.7 19:36:46 10° NNW 19:42:17 83° ENE 19:47:50 10° SSE
Cosmos 1452 Rocket 3.5 19:40:44 10° S 19:45:57 72° ESE 19:51:12 10° NNE
ERS-1 Rocket 4.4 19:42:51 10° ESE 19:46:47 24° ENE 19:50:44 10° NNE
ATLAS 5 CENTAUR R/B 3.5 19:34:28 10° NW 19:47:08 63° WSW 19:50:59 10° SSE
MetOp-B 4.4 19:42:56 10° SSE 19:48:08 55° ENE 19:53:22 10° N
Cosmos 1110 Rocket 4.3 19:44:31 10° S 19:49:33 49° ESE 19:54:39 10° NNE
X-37B 0.2 19:48:35 10° W 19:51:24 76° SSW 19:54:11 10° ESE
SL-8 R/B 3.7 19:51:52 10° WNW 19:56:42 78° SSW 20:01:22 11° ESE
Cosmos 2228 3.7 19:54:53 10° N 19:58:52 38° ENE 20:02:34 11° SE
Cosmos 1697 Rocket 2.9 19:57:26 10° NNW 20:03:00 59° ENE 20:08:06 12° SE
Cosmos 1980 Rocket 3.3 19:58:20 10° N 20:03:27 33° NE 20:08:21 11° ESE
SL-16 R/B 4.5 20:02:51 10° NNE 20:05:10 12° NE 20:07:28 10° ENE
ATLAS 5 CENTAUR R/B 2.9 20:09:31 13° ESE 20:10:03 14° ESE 20:11:59 10° E
Cosmos 2369 4.4 20:06:25 10° NNW 20:11:52 42° ENE 20:16:35 13° SE
Cosmos 1408 4.4 20:14:47 13° ESE 20:15:50 14° E 20:17:46 10° NE
Resurs 01 Rocket 2.5 20:11:46 10° S 20:16:03 47° W 20:20:23 10° NNW
Cosmos 2344 4.5 20:08:21 10° NW 20:17:10 65° NE 20:28:17 13° SE
COSMOS 2406 3.3 20:14:00 10° S 20:19:37 56° ESE 20:25:14 10° NNE
Cosmos 2184 Rocket 4.0 20:18:46 10° N 20:24:59 90° E 20:31:13 10° S
Cosmos 1833 Rocket 2.8 20:19:39 10° SSW 20:25:15 79° WNW 20:30:55 10° NNE
H-2A R/B 3.7 20:22:33 10° N 20:26:42 38° WNW 20:30:51 10° SW
Cosmos 1867 4.2 20:25:12 10° NNW 20:30:31 49° NE 20:34:38 16° ESE
Cosmos 1536 Rocket 4.3 20:26:41 10° SSW 20:30:55 53° WNW 20:35:12 10° N
Cosmos 1703 3.7 20:28:14 10° SSW 20:32:03 62° W 20:35:53 10° N
CARTOSAT-1 3.9 20:29:15 11° S 20:33:17 64° WSW 20:37:35 10° NNW
Cosmos 1825 4.3 20:33:23 12° E 20:33:59 12° E 20:35:27 10° ENE
USA 245 3.2 20:32:00 15° S 20:35:11 76° WSW 20:38:26 10° NNW
Cosmos 1606 Rocket 3.6 20:32:36 10° N 20:36:55 65° E 20:39:49 20° SSE
Ariane Rocket 3.8 20:32:26 10° S 20:37:21 47° W 20:42:16 10° NNW
Cosmos 2322 Rocket 4.4 20:36:17 10° N 20:39:36 16° NE 20:42:56 10° E
CZ-4B R/B 3.7 20:44:05 10° NNW 20:46:18 20° WNW 20:48:31 10° WSW
ARIANE 5 R/B 3.2 20:44:14 22° SE 20:46:44 43° ENE 20:50:55 10° N
Terra 2.0 20:44:04 21° SSE 20:47:06 62° ENE 20:51:49 10° N
GP-B 4.4 20:43:38 10° NNE 20:47:22 26° E 20:49:01 21° ESE
SPOT 3 Rocket 4.0 20:44:20 13° S 20:48:54 59° W 20:54:04 10° NNW
SPOT 5 2.6 20:46:56 20° SSE 20:49:53 85° WSW 20:54:14 10° NNW
RESURS DK-1 4.2 20:50:26 10° NW 20:53:48 24° WSW 20:56:54 11° SSW
Cosmos 2278 4.3 20:48:20 10° NNW 20:53:51 46° ENE 20:57:25 21° ESE
USA 276 3.7 20:51:38 10° NW 20:54:24 31° NNE 20:56:54 12° ENE
Cosmos 2341 Rocket 4.3 20:49:14 10° N 20:55:26 54° ENE 20:59:17 23° SE
FALCON 9 DEB 4.3 20:52:54 10° NW 20:55:58 36° NNE 20:58:00 18° E
Cosmos 1726 Rocket 3.4 20:54:30 10° N 20:58:51 86° E 21:01:14 26° S
Meteor 1-11 4.2 20:58:41 20° S 21:02:33 64° E 21:08:04 10° NNE
Cosmos 2082 Rocket 2.2 20:57:41 10° SSW 21:03:24 88° ESE 21:09:08 10° NNE
Helios 1A Rocket 3.3 21:04:55 23° S 21:07:16 59° WSW 21:11:21 10° NNW
Spot 2 Rocket 3.9 21:04:02 19° S 21:07:38 60° W 21:12:42 10° NNW
Cosmos 1328 4.3 21:05:03 14° SSW 21:08:20 57° W 21:12:16 10° N
ASTEX 1 3.8 21:04:45 10° NNE 21:09:34 46° E 21:11:40 29° SE
TIMED 4.4 21:07:04 19° SSW 21:10:08 81° ESE 21:14:31 10° NNE
Cosmos 2084 Rocket 4.0 21:08:36 10° NW 21:12:20 42° WSW 21:13:53 28° S
Nadezhda 1 Rocket 4.5 21:07:40 10° SSW 21:13:38 57° WNW 21:19:37 10° N
Cosmos 2360 Rocket 4.3 21:10:29 10° N 21:14:18 18° NE 21:18:06 10° E
Cosmos 1932 4.4 21:11:03 10° SSW 21:17:15 81° ESE 21:23:37 10° NE
Cosmos 2181 Rocket 4.1 21:17:08 27° SSE 21:20:32 59° E 21:26:40 10° NNE
ERS-1 Rocket 3.7 21:22:07 20° SSW 21:25:17 47° W 21:30:09 10° NNW
X-37B 2.7 21:24:29 10° W 21:25:27 15° WSW 21:25:27 15° WSW
Cosmos 1892 2.6 21:26:27 38° SSW 21:27:49 82° W 21:31:37 10° N
Cosmos 1602 Rocket 4.4 21:28:29 30° ESE 21:29:07 32° E 21:32:58 10° NNE
Cosmos 968 Rocket 4.3 21:39:12 10° NW 21:44:05 42° WSW 21:46:30 26° SSW
Cosmos 1503 Rocket 4.4 21:40:21 10° NNW 21:45:33 54° ENE 21:47:32 34° SE
ALOS 2 4.3 21:44:13 19° E 21:45:36 22° ENE 21:48:59 10° NNE
Cosmos 1980 Rocket 3.0 21:42:13 10° NW 21:47:33 41° WSW 21:50:07 26° SSW
Cosmos 1408 4.0 21:48:44 22° WSW 21:50:13 31° WNW 21:53:20 10° NNW
SL-16 R/B 2.5 21:44:57 10° NNW 21:50:34 59° ENE 21:52:57 33° SE
Cosmos 1626 Rocket 3.4 21:50:06 48° S 21:51:16 86° E 21:55:38 10° N
Cosmos 2058 Rocket 3.9 21:47:23 10° NNW 21:51:36 45° W 21:53:20 30° SW
Cosmos 2058 4.4 21:53:50 23° E 21:53:51 23° E 21:57:09 10° NE
ATLAS 5 CENTAUR R/B 2.0 21:50:51 14° WSW 21:53:54 51° NW 21:57:59 10° NNE
USA 267 3.3 21:48:15 10° NE 21:54:42 58° SE 21:59:30 19° SSW
SL-8 Rocket 4.2 21:48:45 10° NNW 21:54:54 66° W 21:58:01 30° SSW
SJ 16-02 2.0 21:58:18 10° N 22:02:36 46° ENE 22:03:35 39° ESE
SL-4 R/B 2.9 22:04:44 29° ENE 22:04:44 29° ENE 22:06:42 10° ENE
Cosmos 1825 Rocket 4.5 22:04:05 32° E 22:04:15 32° E 22:08:08 10° NNE
Meteor 2-20 4.5 22:03:58 39° SSE 22:06:13 65° E 22:12:14 10° NNE
Cosmos 1825 2.9 22:08:00 38° WSW 22:08:51 46° WNW 22:12:29 10° N
Cosmos 2221 4.5 22:11:23 10° NNE 22:14:27 18° ENE 22:15:26 17° E
Cosmos 2366 rocket 4.4 22:09:05 10° NNW 22:15:16 56° W 22:18:15 30° SSW
Cosmos 1869 4.0 22:14:10 10° NNW 22:17:53 42° W 22:18:25 39° WSW
Cosmos 2322 Rocket 2.2 22:18:56 10° NNW 22:24:38 77° ENE 22:26:28 45° SE
Terra 4.1 22:22:57 11° WSW 22:25:17 15° W 22:28:04 10° NW
USA 234 3.8 22:22:05 10° ESE 22:28:25 55° NNE 22:34:48 10° NW
USA 276 4.0 22:27:18 10° WNW 22:28:42 24° WNW 22:28:42 24° WNW
Cosmos 1934 Rocket 4.4 22:26:43 10° N 22:32:39 51° ENE 22:34:46 36° SE
Meteor 2-20 Rocket 4.4 22:33:21 45° S 22:35:20 78° E 22:41:28 10° N
BREEZE-M DEB (TANK) 4.3 22:34:12 10° WNW 22:37:45 67° NNE 22:52:33 10° ESE
Cosmos 1633 3.5 22:39:01 36° W 22:39:05 36° WNW 22:42:20 10° N
Cosmos 1758 Rocket 4.0 22:42:24 45° WSW 22:43:14 53° WNW 22:47:33 10° N
Cosmos 2333 Rocket 3.0 22:39:58 10° NNW 22:45:33 46° ENE 22:48:05 29° ESE
Cosmos 1606 3.1 22:50:44 10° NNW 22:54:21 54° W 22:54:21 54° W
Cosmos-2242 3.7 22:50:52 10° NNW 22:54:52 41° W 22:55:10 41° WSW
ADEOS Rocket 3.5 22:53:13 40° S 22:56:17 83° WSW 23:04:07 10° NNW
Cosmos 1340 Rocket 2.7 22:58:42 82° NNE 22:58:42 82° NNE 23:02:31 10° N
ISS -1.5 23:00:48 19° ENE 23:00:48 19° ENE 23:01:54 10° ENE
Cosmos 2360 Rocket 2.1 22:53:24 10° NNW 22:59:07 88° WSW 23:00:31 53° SSE
Gbstr 26 Del rocket 3.2 22:59:00 35° WSW 23:00:43 71° NNW 23:05:45 10° ENE
Meteor 2-3 Rocket 4.4 23:04:49 36° ESE 23:05:58 41° E 23:11:09 10° NNE
Cosmos 2333 4.4 23:02:56 10° NNW 23:08:44 70° ENE 23:10:38 43° SE
Cosmos 1076 Rocket 4.4 23:09:44 36° E 23:09:49 36° E 23:13:49 10° NNE
BREEZE-M DEB (TANK) 3.3 23:12:24 47° ENE 23:12:24 47° ENE 23:16:21 10° ENE
SL-27 R/B 3.7 23:13:18 34° NE 23:13:18 34° NE 23:15:23 10° NNE
NOSS 3-2 (A) 3.9 23:13:41 36° ESE 23:13:58 36° ESE 23:19:27 10° NE
Cosmos 44 3.2 23:14:09 55° WSW 23:14:59 70° NW 23:19:28 10° NNE
Meteor 2-11 Rocket 4.3 23:09:30 10° N 23:15:39 88° W 23:17:23 50° S
Cosmos 1833 4.2 23:14:26 48° SW 23:16:04 79° WNW 23:21:42 10° NNE
Cosmos 972 Rocket 4.1 23:12:06 10° NNW 23:17:25 79° WSW 23:18:42 55° S
ALOS 2 3.4 23:21:36 38° W 23:21:43 38° W 23:25:50 10° NNW
Cosmos 1782 3.8 23:18:27 10° N 23:22:07 35° ENE 23:22:20 35° E
CENTAUR R/B 2.9 23:22:31 39° SE 23:23:19 41° ESE 23:29:32 10° NE
ERS-2 2.4 23:19:47 10° N 23:22:56 64° NNW 23:22:56 64° NNW
Cosmos 2237 Rocket 4.4 23:20:54 10° N 23:25:10 21° NE 23:29:22 10° E
Cosmos 1605 Rocket 4.0 23:19:56 10° N 23:26:23 82° E 23:28:27 46° SSE
Cosmos 2297 Rocket 4.0 23:29:19 16° ESE 23:30:20 17° E 23:33:48 10° ENE
Cosmos 2058 4.2 23:29:58 29° W 23:30:32 30° WNW 23:34:16 10° NNW
Cosmos 2151 3.5 23:31:03 46° E 23:31:09 47° E 23:35:18 10° NNE
COSMOS 2428 3.3 23:26:22 10° NNW 23:31:59 54° ENE 23:34:37 30° ESE
Cosmos 1953 Rocket 4.3 23:33:03 41° W 23:33:36 43° WNW 23:37:50 10° N
SL-16 R/B 3.7 23:29:58 10° NW 23:34:11 22° W 23:34:48 21° WSW
Cosmos 2219 Rocket 2.2 23:29:12 10° NNW 23:34:55 79° ENE 23:36:41 46° SE
USA 267 4.0 23:31:21 10° NE 23:37:40 52° NNW 23:43:57 10° WSW
SJ 16-02 3.3 23:37:49 10° NW 23:40:31 17° W 23:40:31 17° W
SL-4 R/B 3.5 23:40:05 13° WNW 23:42:47 32° NNW 23:46:10 10° NE
Cosmos 2322 3.6 23:38:21 10° NNW 23:44:05 85° ENE 23:45:45 48° SSE
Cosmos 1898 Rocket 3.8 23:40:14 10° NNW 23:45:22 61° ENE 23:47:02 40° SE
Cosmos 1937 Rocket 4.2 23:45:27 10° N 23:50:33 49° ENE 23:52:45 30° ESE
Cosmos 2221 3.2 23:48:03 10° NNW 23:52:11 42° W 23:52:14 42° W
COSMOS 2455 4.2 23:47:07 10° NNW 23:52:39 36° NE 23:58:08 10° ESE
PSLV R/B 4.1 23:50:07 10° N 23:54:45 54° WNW 23:55:36 47° WSW
